AFR4993 LFRS-KBOS

Flight info

Callsign AFR4993
Flight time N/A
Altitude 36000
Route RIMON DCT KORER DCT TEJOP/N0442F350 DCT TULTA/M076F360 DCT GUNSO DCT SOMAX NATJ PORTI/N0435F380 N194A ALLEX DCT EURRO OOSHN5
Aircraft A21N/M-SDE2E3FGHIRWXY/LB1

Departure

Time 2026-04-29 11:36
Airport Nantes Atlantique Airport (LFRS)

Arrival

Time N/A
Airport Boston Logan International Airport (KBOS)
Time Latitude Longitude Altitude Speed Heading
2026-04-29 10:39 47.15732 -1.60329 106 ft 0 kts 89°
2026-04-29 11:22 47.15732 -1.60335 106 ft 3 kts 87°
2026-04-29 11:22 47.15731 -1.60370 104 ft 4 kts 90°
2026-04-29 11:23 47.15732 -1.60410 105 ft 4 kts 96°
2026-04-29 11:23 47.15734 -1.60444 106 ft 1 kts 96°
2026-04-29 11:23 47.15735 -1.60451 106 ft 1 kts 96°
2026-04-29 11:29 47.15736 -1.60441 106 ft 2 kts 75°
2026-04-29 11:29 47.15752 -1.60431 105 ft 3 kts 350°
2026-04-29 11:29 47.15755 -1.60463 103 ft 4 kts 236°
2026-04-29 11:29 47.15729 -1.60494 104 ft 6 kts 205°
2026-04-29 11:30 47.15689 -1.60522 105 ft 7 kts 208°
2026-04-29 11:30 47.15639 -1.60562 106 ft 9 kts 209°
2026-04-29 11:30 47.15575 -1.60612 108 ft 11 kts 207°
2026-04-29 11:30 47.15500 -1.60668 108 ft 13 kts 207°
2026-04-29 11:31 47.15419 -1.60730 108 ft 14 kts 207°
2026-04-29 11:31 47.15330 -1.60798 108 ft 15 kts 207°
2026-04-29 11:31 47.15235 -1.60871 106 ft 16 kts 207°
2026-04-29 11:31 47.15134 -1.60946 106 ft 17 kts 207°
2026-04-29 11:32 47.15028 -1.61027 102 ft 18 kts 208°
2026-04-29 11:32 47.14918 -1.61111 104 ft 19 kts 207°
2026-04-29 11:32 47.14799 -1.61202 103 ft 19 kts 207°
2026-04-29 11:32 47.14678 -1.61294 104 ft 20 kts 207°
2026-04-29 11:33 47.14553 -1.61390 100 ft 21 kts 207°
2026-04-29 11:33 47.14422 -1.61489 100 ft 21 kts 207°
2026-04-29 11:33 47.14290 -1.61590 97 ft 20 kts 207°
2026-04-29 11:33 47.14193 -1.61663 94 ft 15 kts 210°
2026-04-29 11:34 47.14146 -1.61795 94 ft 16 kts 252°
2026-04-29 11:34 47.14178 -1.61937 97 ft 17 kts 344°
2026-04-29 11:34 47.14258 -1.61876 96 ft 1 kts 26°
2026-04-29 11:34 47.14268 -1.61868 95 ft 3 kts 26°
2026-04-29 11:35 47.14293 -1.61850 98 ft 19 kts 27°
2026-04-29 11:35 47.14628 -1.61585 106 ft 88 kts 26°
2026-04-29 11:35 47.15658 -1.60811 109 ft 157 kts 30°
2026-04-29 11:35 47.16310 -1.60323 459 ft 152 kts 28°
2026-04-29 11:36 47.17276 -1.59658 965 ft 158 kts 22°
2026-04-29 11:36 47.18394 -1.59813 1346 ft 181 kts 332°
2026-04-29 11:36 47.19151 -1.61426 1609 ft 209 kts 287°
2026-04-29 11:36 47.19555 -1.63535 2202 ft 219 kts 288°
2026-04-29 11:37 47.20125 -1.65675 2817 ft 231 kts 292°
2026-04-29 11:37 47.20760 -1.67917 3354 ft 245 kts 291°
2026-04-29 11:37 47.21405 -1.70329 3886 ft 263 kts 290°
2026-04-29 11:37 47.22091 -1.72885 4450 ft 280 kts 291°
2026-04-29 11:38 47.22866 -1.75584 5129 ft 290 kts 295°
2026-04-29 11:38 47.23814 -1.78221 5945 ft 294 kts 297°
2026-04-29 11:38 47.24797 -1.80896 6724 ft 298 kts 297°
2026-04-29 11:38 47.25787 -1.83590 7516 ft 301 kts 297°
2026-04-29 11:39 47.26786 -1.86318 8341 ft 303 kts 297°
2026-04-29 11:39 47.27786 -1.89064 9175 ft 306 kts 297°
2026-04-29 11:39 47.28793 -1.91835 10002 ft 309 kts 297°
2026-04-29 11:39 47.29834 -1.94702 10437 ft 326 kts 297°
2026-04-29 11:40 47.30930 -1.97737 10808 ft 343 kts 297°
2026-04-29 11:40 47.32061 -2.00874 11477 ft 349 kts 297°
2026-04-29 11:40 47.33376 -2.03905 12233 ft 353 kts 311°
2026-04-29 11:40 47.35280 -2.06203 13006 ft 356 kts 329°
2026-04-29 11:41 47.37451 -2.07973 13789 ft 359 kts 333°
2026-04-29 11:41 47.39678 -2.09710 14407 ft 365 kts 332°
2026-04-29 11:41 47.41925 -2.11491 15053 ft 369 kts 332°
2026-04-29 11:41 47.44194 -2.13302 15689 ft 373 kts 331°
2026-04-29 11:42 47.46485 -2.15154 16305 ft 377 kts 330°
2026-04-29 11:42 47.48801 -2.17046 16913 ft 382 kts 330°
2026-04-29 11:42 47.51014 -2.19247 17509 ft 386 kts 316°
2026-04-29 11:42 47.52819 -2.22137 18078 ft 389 kts 308°
2026-04-29 11:43 47.54547 -2.25245 18613 ft 393 kts 307°
2026-04-29 11:43 47.56292 -2.28388 19138 ft 397 kts 307°
2026-04-29 11:43 47.58060 -2.31559 19689 ft 400 kts 307°
2026-04-29 11:43 47.59851 -2.34737 20234 ft 403 kts 307°
2026-04-29 11:44 47.61656 -2.37935 20758 ft 406 kts 307°
2026-04-29 11:44 47.63475 -2.41167 21252 ft 411 kts 307°
2026-04-29 11:44 47.65315 -2.44430 21747 ft 414 kts 307°
2026-04-29 11:44 47.67170 -2.47729 22240 ft 418 kts 306°
2026-04-29 11:45 47.68984 -2.51114 22707 ft 420 kts 302°
2026-04-29 11:45 47.70694 -2.54649 23217 ft 423 kts 300°
2026-04-29 11:45 47.72397 -2.58241 23640 ft 426 kts 300°
2026-04-29 11:45 47.74091 -2.61799 24027 ft 429 kts 300°
2026-04-29 11:46 47.75844 -2.65469 24441 ft 431 kts 300°
2026-04-29 11:46 47.77558 -2.69066 24842 ft 432 kts 300°
2026-04-29 11:46 47.79297 -2.72720 25241 ft 434 kts 300°
2026-04-29 11:46 47.81043 -2.76395 25620 ft 436 kts 300°
2026-04-29 11:47 47.82795 -2.80082 25993 ft 437 kts 300°
2026-04-29 11:47 47.84547 -2.83780 26364 ft 439 kts 299°
2026-04-29 11:47 47.86307 -2.87508 26734 ft 440 kts 299°
2026-04-29 11:47 47.88073 -2.91247 27091 ft 442 kts 299°
2026-04-29 11:48 47.89850 -2.95002 27431 ft 443 kts 299°
2026-04-29 11:48 47.91627 -2.98768 27788 ft 445 kts 298°
2026-04-29 11:48 47.93408 -3.02545 28092 ft 447 kts 298°
2026-04-29 11:48 47.95195 -3.06354 28390 ft 449 kts 298°
2026-04-29 11:49 47.96997 -3.10191 28700 ft 451 kts 298°
2026-04-29 11:49 47.98794 -3.14030 29022 ft 452 kts 298°
2026-04-29 11:49 48.00601 -3.17880 29319 ft 453 kts 298°
2026-04-29 11:49 48.02413 -3.21752 29603 ft 455 kts 298°
2026-04-29 11:50 48.04225 -3.25639 29868 ft 457 kts 298°
2026-04-29 11:50 48.06015 -3.29495 30116 ft 458 kts 297°
2026-04-29 11:50 48.07831 -3.33417 30359 ft 459 kts 297°
2026-04-29 11:50 48.09640 -3.37359 30602 ft 460 kts 297°
2026-04-29 11:51 48.11454 -3.41318 30882 ft 462 kts 297°
2026-04-29 11:51 48.13283 -3.45286 31098 ft 464 kts 297°
2026-04-29 11:51 48.15125 -3.49257 31308 ft 465 kts 297°
2026-04-29 11:51 48.16976 -3.53250 31529 ft 467 kts 298°
2026-04-29 11:52 48.18836 -3.57248 31760 ft 468 kts 298°
2026-04-29 11:52 48.20703 -3.61253 31943 ft 470 kts 298°
2026-04-29 11:52 48.22574 -3.65282 32125 ft 471 kts 298°
2026-04-29 11:52 48.24432 -3.69326 32374 ft 471 kts 298°
2026-04-29 11:53 48.26290 -3.73380 32646 ft 471 kts 298°
2026-04-29 11:53 48.28137 -3.77434 32887 ft 470 kts 298°
2026-04-29 11:53 48.29994 -3.81476 33128 ft 470 kts 298°
2026-04-29 11:53 48.31849 -3.85516 33354 ft 470 kts 298°
2026-04-29 11:54 48.33705 -3.89580 33589 ft 470 kts 298°
2026-04-29 11:54 48.35548 -3.93638 33754 ft 471 kts 298°
2026-04-29 11:54 48.37391 -3.97709 33930 ft 471 kts 298°
2026-04-29 11:54 48.39235 -4.01781 34078 ft 472 kts 298°
2026-04-29 11:55 48.41089 -4.05864 34229 ft 472 kts 299°
2026-04-29 11:55 48.42937 -4.09941 34375 ft 472 kts 299°
2026-04-29 11:55 48.44791 -4.14031 34524 ft 472 kts 299°
2026-04-29 11:55 48.46638 -4.18121 34663 ft 472 kts 299°
2026-04-29 11:56 48.48476 -4.22216 34799 ft 472 kts 299°
2026-04-29 11:56 48.50323 -4.26311 34932 ft 472 kts 299°
2026-04-29 11:56 48.52148 -4.30356 35061 ft 472 kts 299°
2026-04-29 11:56 48.53991 -4.34453 35218 ft 472 kts 300°
2026-04-29 11:57 48.57679 -4.42698 35361 ft 475 kts 300°
2026-04-29 11:57 48.61368 -4.51010 35537 ft 476 kts 300°
2026-04-29 11:58 48.63217 -4.55159 35646 ft 476 kts 300°
2026-04-29 11:58 48.65067 -4.59314 35771 ft 476 kts 300°
2026-04-29 11:58 48.66922 -4.63478 35882 ft 476 kts 300°
2026-04-29 11:58 48.68770 -4.67637 35981 ft 476 kts 300°
2026-04-29 11:59 48.72459 -4.75979 35987 ft 476 kts 300°
2026-04-29 11:59 48.76118 -4.84277 35982 ft 476 kts 300°
2026-04-29 12:00 48.79784 -4.92669 35988 ft 476 kts 298°
2026-04-29 12:00 48.81304 -4.97091 35992 ft 471 kts 287°
2026-04-29 12:00 48.82208 -5.01820 35994 ft 464 kts 275°
2026-04-29 12:01 48.82440 -5.06661 35991 ft 457 kts 263°
2026-04-29 12:01 48.82159 -5.11429 35997 ft 452 kts 258°
2026-04-29 12:01 48.81395 -5.20902 35994 ft 452 kts 258°
2026-04-29 12:02 48.80664 -5.30390 35998 ft 455 kts 259°
2026-04-29 12:02 48.79961 -5.39947 35994 ft 455 kts 259°
2026-04-29 12:03 48.79255 -5.49510 35989 ft 455 kts 259°
2026-04-29 12:03 48.78534 -5.59015 35986 ft 455 kts 258°
2026-04-29 12:04 48.77784 -5.68586 36013 ft 456 kts 259°
2026-04-29 12:04 48.77040 -5.78188 35995 ft 459 kts 259°
2026-04-29 12:05 48.76282 -5.87806 35988 ft 460 kts 259°
2026-04-29 12:05 48.75555 -5.97406 35976 ft 460 kts 259°
2026-04-29 12:06 48.74801 -6.06950 35976 ft 461 kts 259°
2026-04-29 12:06 48.74033 -6.16576 35990 ft 462 kts 259°
2026-04-29 12:07 48.73239 -6.26212 35988 ft 461 kts 258°
2026-04-29 12:07 48.72424 -6.35851 35977 ft 461 kts 259°
2026-04-29 12:08 48.71615 -6.45474 35983 ft 461 kts 258°
2026-04-29 12:08 48.70800 -6.55113 36002 ft 461 kts 259°
2026-04-29 12:09 48.70003 -6.64778 35991 ft 463 kts 259°
2026-04-29 12:09 48.69193 -6.74454 35982 ft 462 kts 259°
2026-04-29 12:10 48.68360 -6.84126 35993 ft 462 kts 258°
2026-04-29 12:10 48.67516 -6.93790 35997 ft 462 kts 258°
2026-04-29 12:11 48.66658 -7.03429 35997 ft 467 kts 258°
2026-04-29 12:11 48.65773 -7.13181 35993 ft 468 kts 258°
2026-04-29 12:12 48.64910 -7.22926 35997 ft 468 kts 259°
2026-04-29 12:12 48.64029 -7.32678 35996 ft 468 kts 259°
2026-04-29 12:13 48.63137 -7.42413 36004 ft 469 kts 258°
2026-04-29 12:13 48.62230 -7.52230 36002 ft 471 kts 259°
2026-04-29 12:14 48.61299 -7.62062 36001 ft 473 kts 259°
2026-04-29 12:14 48.60369 -7.71887 36000 ft 472 kts 259°
2026-04-29 12:15 48.59428 -7.81653 36001 ft 472 kts 259°
2026-04-29 12:15 48.58492 -7.91510 36004 ft 476 kts 259°
2026-04-29 12:16 48.57962 -8.01484 35998 ft 477 kts 274°
2026-04-29 12:16 48.59228 -8.11374 36002 ft 481 kts 281°
2026-04-29 12:17 48.60690 -8.21199 36011 ft 481 kts 281°
2026-04-29 12:17 48.62096 -8.31084 36022 ft 478 kts 281°
2026-04-29 12:18 48.63481 -8.40940 36012 ft 482 kts 281°
2026-04-29 12:18 48.64876 -8.50898 36017 ft 482 kts 281°
2026-04-29 12:19 48.66232 -8.60844 36019 ft 481 kts 281°
2026-04-29 12:19 48.67591 -8.70761 36015 ft 482 kts 281°
2026-04-29 12:20 48.68952 -8.80683 36025 ft 483 kts 281°
2026-04-29 12:20 48.70287 -8.90615 36026 ft 481 kts 281°
2026-04-29 12:21 48.71633 -9.00556 36025 ft 483 kts 281°
2026-04-29 12:21 48.72754 -9.08903 36026 ft 482 kts 281°
2026-04-29 12:22 48.74067 -9.18812 36030 ft 480 kts 281°
2026-04-29 12:22 48.75390 -9.28770 36034 ft 484 kts 281°
2026-04-29 12:23 48.76709 -9.38782 36035 ft 483 kts 281°
2026-04-29 12:23 48.78017 -9.48764 36034 ft 481 kts 281°
2026-04-29 12:24 48.79321 -9.58753 36044 ft 485 kts 281°
2026-04-29 12:24 48.80610 -9.68717 36049 ft 484 kts 281°
2026-04-29 12:25 48.81873 -9.78664 36040 ft 481 kts 281°
2026-04-29 12:26 48.83780 -9.93683 36057 ft 482 kts 281°
2026-04-29 12:26 48.85034 -10.03669 36056 ft 479 kts 281°
2026-04-29 12:27 48.86274 -10.13656 36051 ft 483 kts 281°
2026-04-29 12:27 48.87513 -10.23680 36060 ft 483 kts 281°
2026-04-29 12:28 48.88739 -10.33692 36065 ft 481 kts 281°
2026-04-29 12:28 48.89961 -10.43732 36072 ft 485 kts 281°
2026-04-29 12:29 48.91165 -10.53713 36074 ft 482 kts 281°
2026-04-29 12:29 48.92363 -10.63725 36075 ft 481 kts 281°
2026-04-29 12:30 48.93547 -10.73706 36077 ft 483 kts 281°
2026-04-29 12:30 48.94735 -10.83752 36083 ft 479 kts 281°
2026-04-29 12:31 48.95900 -10.93682 36084 ft 480 kts 281°
2026-04-29 12:31 48.97065 -11.03734 36088 ft 481 kts 281°
2026-04-29 12:32 48.98214 -11.13739 36091 ft 476 kts 281°